#datetime,building,power
2023-09-13T00:00:00,axn,28.04
2023-09-13T00:01:00,axn,28.29
2023-09-13T00:02:00,axn,28.14
2023-09-13T00:03:00,axn,28.21
2023-09-13T00:04:00,axn,28.14
2023-09-13T00:05:00,axn,28.53
2023-09-13T00:06:00,axn,28.63
2023-09-13T00:07:00,axn,28.68
2023-09-13T00:08:00,axn,28.55
2023-09-13T00:09:00,axn,28.36
2023-09-13T00:10:00,axn,27.92
2023-09-13T00:11:00,axn,27.93
2023-09-13T00:12:00,axn,27.87
2023-09-13T00:13:00,axn,27.63
2023-09-13T00:14:00,axn,27.47
2023-09-13T00:15:00,axn,27.41
2023-09-13T00:16:00,axn,27.26
2023-09-13T00:17:00,axn,27.83
2023-09-13T00:18:00,axn,27.25
2023-09-13T00:19:00,axn,27.31
2023-09-13T00:20:00,axn,27.27
2023-09-13T00:21:00,axn,30.12
2023-09-13T00:22:00,axn,29.88
2023-09-13T00:23:00,axn,29.75
2023-09-13T00:24:00,axn,29.73
2023-09-13T00:25:00,axn,27.08
2023-09-13T00:26:00,axn,26.97
2023-09-13T00:27:00,axn,26.96
2023-09-13T00:28:00,axn,26.98
2023-09-13T00:29:00,axn,27.06
2023-09-13T00:30:00,axn,27.38
2023-09-13T00:31:00,axn,26.96
2023-09-13T00:32:00,axn,27.10
2023-09-13T00:33:00,axn,26.79
2023-09-13T00:34:00,axn,26.81
2023-09-13T00:35:00,axn,27.15
2023-09-13T00:36:00,axn,26.77
2023-09-13T00:37:00,axn,26.87
2023-09-13T00:38:00,axn,26.75
2023-09-13T00:39:00,axn,32.36
2023-09-13T00:40:00,axn,31.37
2023-09-13T00:41:00,axn,31.25
2023-09-13T00:42:00,axn,26.75
2023-09-13T00:43:00,axn,26.59
2023-09-13T00:44:00,axn,26.64
2023-09-13T00:45:00,axn,26.55
2023-09-13T00:46:00,axn,26.47
2023-09-13T00:47:00,axn,26.60
2023-09-13T00:48:00,axn,26.66
2023-09-13T00:49:00,axn,26.93
2023-09-13T00:50:00,axn,26.76
2023-09-13T00:51:00,axn,26.69
2023-09-13T00:52:00,axn,26.73
2023-09-13T00:53:00,axn,26.79
2023-09-13T00:54:00,axn,26.75
2023-09-13T00:55:00,axn,26.70
2023-09-13T00:56:00,axn,26.81
2023-09-13T00:57:00,axn,27.41
2023-09-13T00:58:00,axn,26.31
2023-09-13T00:59:00,axn,26.19
2023-09-13T01:00:00,axn,26.72
2023-09-13T01:01:00,axn,26.30
2023-09-13T01:02:00,axn,26.28
2023-09-13T01:03:00,axn,26.21
2023-09-13T01:04:00,axn,26.15
2023-09-13T01:05:00,axn,26.08
2023-09-13T01:06:00,axn,26.63
2023-09-13T01:07:00,axn,26.24
2023-09-13T01:08:00,axn,26.33
2023-09-13T01:09:00,axn,26.41
2023-09-13T01:10:00,axn,26.65
2023-09-13T01:11:00,axn,26.48
2023-09-13T01:12:00,axn,27.28
2023-09-13T01:13:00,axn,27.10
2023-09-13T01:14:00,axn,26.61
2023-09-13T01:15:00,axn,26.57
2023-09-13T01:16:00,axn,26.55
2023-09-13T01:17:00,axn,26.56
2023-09-13T01:18:00,axn,26.96
2023-09-13T01:19:00,axn,26.51
2023-09-13T01:20:00,axn,26.61
2023-09-13T01:21:00,axn,26.67
2023-09-13T01:22:00,axn,26.85
2023-09-13T01:23:00,axn,26.61
2023-09-13T01:24:00,axn,26.77
2023-09-13T01:25:00,axn,26.64
2023-09-13T01:26:00,axn,26.60
2023-09-13T01:27:00,axn,26.70
2023-09-13T01:28:00,axn,26.68
2023-09-13T01:29:00,axn,26.62
2023-09-13T01:30:00,axn,26.75
2023-09-13T01:31:00,axn,26.93
2023-09-13T01:32:00,axn,26.74
2023-09-13T01:33:00,axn,26.37
2023-09-13T01:34:00,axn,26.37
2023-09-13T01:35:00,axn,26.27
2023-09-13T01:36:00,axn,26.37
2023-09-13T01:37:00,axn,26.40
2023-09-13T01:38:00,axn,26.57
2023-09-13T01:39:00,axn,26.39
2023-09-13T01:40:00,axn,26.39
2023-09-13T01:41:00,axn,25.78
2023-09-13T01:42:00,axn,26.01
2023-09-13T01:43:00,axn,25.88
2023-09-13T01:44:00,axn,25.68
2023-09-13T01:45:00,axn,25.64
2023-09-13T01:46:00,axn,25.80
2023-09-13T01:47:00,axn,25.88
2023-09-13T01:48:00,axn,26.05
2023-09-13T01:49:00,axn,25.88
2023-09-13T01:50:00,axn,25.91
2023-09-13T01:51:00,axn,25.87
2023-09-13T01:52:00,axn,25.82
2023-09-13T01:53:00,axn,25.95
2023-09-13T01:54:00,axn,25.95
2023-09-13T01:55:00,axn,26.33
2023-09-13T01:56:00,axn,26.26
2023-09-13T01:57:00,axn,26.45
2023-09-13T01:58:00,axn,26.11
2023-09-13T01:59:00,axn,26.68
2023-09-13T02:00:00,axn,26.37
2023-09-13T02:01:00,axn,26.15
2023-09-13T02:02:00,axn,26.43
2023-09-13T02:03:00,axn,26.48
2023-09-13T02:04:00,axn,36.80
2023-09-13T02:05:00,axn,36.56
2023-09-13T02:06:00,axn,36.57
2023-09-13T02:07:00,axn,36.64
2023-09-13T02:08:00,axn,25.80
2023-09-13T02:09:00,axn,25.96
2023-09-13T02:10:00,axn,26.05
2023-09-13T02:11:00,axn,25.91
2023-09-13T02:12:00,axn,26.27
2023-09-13T02:13:00,axn,25.89
2023-09-13T02:14:00,axn,26.62
2023-09-13T02:15:00,axn,31.48
2023-09-13T02:16:00,axn,26.06
2023-09-13T02:17:00,axn,26.00
2023-09-13T02:18:00,axn,26.09
2023-09-13T02:19:00,axn,26.04
2023-09-13T02:20:00,axn,26.35
2023-09-13T02:21:00,axn,26.24
2023-09-13T02:22:00,axn,26.32
2023-09-13T02:23:00,axn,26.45
2023-09-13T02:24:00,axn,26.45
2023-09-13T02:25:00,axn,26.53
2023-09-13T02:26:00,axn,26.42
2023-09-13T02:27:00,axn,26.38
2023-09-13T02:28:00,axn,26.69
2023-09-13T02:29:00,axn,26.72
2023-09-13T02:30:00,axn,27.08
2023-09-13T02:31:00,axn,26.67
2023-09-13T02:32:00,axn,26.69
2023-09-13T02:33:00,axn,26.80
2023-09-13T02:34:00,axn,26.88
2023-09-13T02:35:00,axn,26.64
2023-09-13T02:36:00,axn,26.43
2023-09-13T02:37:00,axn,27.16
2023-09-13T02:38:00,axn,27.61
2023-09-13T02:39:00,axn,27.74
2023-09-13T02:40:00,axn,27.89
2023-09-13T02:41:00,axn,27.78
2023-09-13T02:42:00,axn,27.88
2023-09-13T02:43:00,axn,27.86
2023-09-13T02:44:00,axn,27.89
2023-09-13T02:45:00,axn,28.10
2023-09-13T02:46:00,axn,27.70
2023-09-13T02:47:00,axn,27.70
2023-09-13T02:48:00,axn,27.76
2023-09-13T02:49:00,axn,28.00
2023-09-13T02:50:00,axn,27.88
2023-09-13T02:51:00,axn,27.76
2023-09-13T02:52:00,axn,28.01
2023-09-13T02:53:00,axn,27.91
2023-09-13T02:54:00,axn,27.92
2023-09-13T02:55:00,axn,30.62
2023-09-13T02:56:00,axn,27.78
2023-09-13T02:57:00,axn,26.91
2023-09-13T02:58:00,axn,26.95
2023-09-13T02:59:00,axn,27.22
2023-09-13T03:00:00,axn,26.68
2023-09-13T03:01:00,axn,41.36
2023-09-13T03:02:00,axn,41.29
2023-09-13T03:03:00,axn,40.95
2023-09-13T03:04:00,axn,41.00
2023-09-13T03:05:00,axn,40.99
2023-09-13T03:06:00,axn,26.83
2023-09-13T03:07:00,axn,26.53
2023-09-13T03:08:00,axn,27.05
2023-09-13T03:09:00,axn,26.45
2023-09-13T03:10:00,axn,26.46
2023-09-13T03:11:00,axn,26.44
2023-09-13T03:12:00,axn,26.47
2023-09-13T03:13:00,axn,26.48
2023-09-13T03:14:00,axn,26.47
2023-09-13T03:15:00,axn,26.40
2023-09-13T03:16:00,axn,26.39
2023-09-13T03:17:00,axn,26.12
2023-09-13T03:18:00,axn,26.09
2023-09-13T03:19:00,axn,26.08
2023-09-13T03:20:00,axn,26.17
2023-09-13T03:21:00,axn,26.56
2023-09-13T03:22:00,axn,26.44
2023-09-13T03:23:00,axn,26.67
2023-09-13T03:24:00,axn,26.25
2023-09-13T03:25:00,axn,26.28
2023-09-13T03:26:00,axn,25.90
2023-09-13T03:27:00,axn,26.49
2023-09-13T03:28:00,axn,26.56
2023-09-13T03:29:00,axn,32.16
2023-09-13T03:30:00,axn,32.11
2023-09-13T03:31:00,axn,32.18
2023-09-13T03:32:00,axn,26.16
2023-09-13T03:33:00,axn,26.33
2023-09-13T03:34:00,axn,26.06
2023-09-13T03:35:00,axn,26.09
2023-09-13T03:36:00,axn,25.98
2023-09-13T03:37:00,axn,26.13
2023-09-13T03:38:00,axn,26.14
2023-09-13T03:39:00,axn,26.22
2023-09-13T03:40:00,axn,26.11
2023-09-13T03:41:00,axn,26.53
2023-09-13T03:42:00,axn,26.02
2023-09-13T03:43:00,axn,26.36
2023-09-13T03:44:00,axn,26.12
2023-09-13T03:45:00,axn,26.28
2023-09-13T03:46:00,axn,26.24
2023-09-13T03:47:00,axn,26.01
2023-09-13T03:48:00,axn,26.08
2023-09-13T03:49:00,axn,26.10
2023-09-13T03:50:00,axn,26.12
2023-09-13T03:51:00,axn,26.38
2023-09-13T03:52:00,axn,26.29
2023-09-13T03:53:00,axn,26.13
2023-09-13T03:54:00,axn,26.07
2023-09-13T03:55:00,axn,26.23
2023-09-13T03:56:00,axn,29.32
2023-09-13T03:57:00,axn,29.29
2023-09-13T03:58:00,axn,29.19
2023-09-13T03:59:00,axn,25.97
2023-09-13T04:00:00,axn,26.02
2023-09-13T04:01:00,axn,26.00
2023-09-13T04:02:00,axn,26.13
2023-09-13T04:03:00,axn,26.23
2023-09-13T04:04:00,axn,26.24
2023-09-13T04:05:00,axn,26.03
2023-09-13T04:06:00,axn,26.14
2023-09-13T04:07:00,axn,25.91
2023-09-13T04:08:00,axn,25.97
2023-09-13T04:09:00,axn,26.47
2023-09-13T04:10:00,axn,26.30
2023-09-13T04:11:00,axn,26.47
2023-09-13T04:12:00,axn,26.18
2023-09-13T04:13:00,axn,26.09
2023-09-13T04:14:00,axn,26.04
2023-09-13T04:15:00,axn,26.02
2023-09-13T04:16:00,axn,26.27
2023-09-13T04:17:00,axn,26.21
2023-09-13T04:18:00,axn,26.26
2023-09-13T04:19:00,axn,26.06
2023-09-13T04:20:00,axn,25.93
2023-09-13T04:21:00,axn,26.09
2023-09-13T04:22:00,axn,26.15
2023-09-13T04:23:00,axn,26.16
2023-09-13T04:24:00,axn,26.29
2023-09-13T04:25:00,axn,26.31
2023-09-13T04:26:00,axn,26.20
2023-09-13T04:27:00,axn,26.25
2023-09-13T04:28:00,axn,26.20
2023-09-13T04:29:00,axn,26.39
2023-09-13T04:30:00,axn,26.27
2023-09-13T04:31:00,axn,26.55
2023-09-13T04:32:00,axn,26.27
2023-09-13T04:33:00,axn,26.31
2023-09-13T04:34:00,axn,26.22
2023-09-13T04:35:00,axn,26.28
2023-09-13T04:36:00,axn,26.15
2023-09-13T04:37:00,axn,25.91
2023-09-13T04:38:00,axn,26.51
2023-09-13T04:39:00,axn,26.52
2023-09-13T04:40:00,axn,26.49
2023-09-13T04:41:00,axn,26.09
2023-09-13T04:42:00,axn,26.06
2023-09-13T04:43:00,axn,26.10
2023-09-13T04:44:00,axn,26.64
2023-09-13T04:45:00,axn,26.69
2023-09-13T04:46:00,axn,26.50
2023-09-13T04:47:00,axn,26.63
2023-09-13T04:48:00,axn,26.55
2023-09-13T04:49:00,axn,43.12
2023-09-13T04:50:00,axn,26.62
2023-09-13T04:51:00,axn,27.06
2023-09-13T04:52:00,axn,28.28
2023-09-13T04:53:00,axn,28.67
2023-09-13T04:54:00,axn,28.91
2023-09-13T04:55:00,axn,28.26
2023-09-13T04:56:00,axn,28.24
2023-09-13T04:57:00,axn,28.38
2023-09-13T04:58:00,axn,28.23
2023-09-13T04:59:00,axn,28.17
2023-09-13T05:00:00,axn,28.23
2023-09-13T05:01:00,axn,25.49
2023-09-13T05:02:00,axn,24.56
2023-09-13T05:03:00,axn,24.94
2023-09-13T05:04:00,axn,24.79
2023-09-13T05:05:00,axn,25.36
2023-09-13T05:06:00,axn,25.67
2023-09-13T05:07:00,axn,25.19
2023-09-13T05:08:00,axn,25.37
2023-09-13T05:09:00,axn,25.05
2023-09-13T05:10:00,axn,27.37
2023-09-13T05:11:00,axn,26.96
2023-09-13T05:12:00,axn,24.84
2023-09-13T05:13:00,axn,24.95
2023-09-13T05:14:00,axn,25.25
2023-09-13T05:15:00,axn,25.58
2023-09-13T05:16:00,axn,24.98
2023-09-13T05:17:00,axn,25.00
2023-09-13T05:18:00,axn,25.30
2023-09-13T05:19:00,axn,25.44
2023-09-13T05:20:00,axn,25.44
2023-09-13T05:21:00,axn,25.37
2023-09-13T05:22:00,axn,25.85
2023-09-13T05:23:00,axn,25.67
2023-09-13T05:24:00,axn,25.05
2023-09-13T05:25:00,axn,24.93
2023-09-13T05:26:00,axn,24.88
2023-09-13T05:27:00,axn,25.18
2023-09-13T05:28:00,axn,24.88
2023-09-13T05:29:00,axn,24.22
2023-09-13T05:30:00,axn,24.64
2023-09-13T05:31:00,axn,27.21
2023-09-13T05:32:00,axn,27.01
2023-09-13T05:33:00,axn,26.63
2023-09-13T05:34:00,axn,26.68
2023-09-13T05:35:00,axn,26.52
2023-09-13T05:36:00,axn,26.57
2023-09-13T05:37:00,axn,26.65
2023-09-13T05:38:00,axn,26.16
2023-09-13T05:39:00,axn,26.29
2023-09-13T05:40:00,axn,26.50
2023-09-13T05:41:00,axn,26.34
2023-09-13T05:42:00,axn,25.96
2023-09-13T05:43:00,axn,25.82
2023-09-13T05:44:00,axn,25.65
2023-09-13T05:45:00,axn,25.77
2023-09-13T05:46:00,axn,25.76
2023-09-13T05:47:00,axn,25.96
2023-09-13T05:48:00,axn,25.83
2023-09-13T05:49:00,axn,25.85
2023-09-13T05:50:00,axn,25.82
2023-09-13T05:51:00,axn,25.60
2023-09-13T05:52:00,axn,25.65
2023-09-13T05:53:00,axn,25.42
2023-09-13T05:54:00,axn,25.49
2023-09-13T05:55:00,axn,25.61
2023-09-13T05:56:00,axn,25.84
2023-09-13T05:57:00,axn,25.63
2023-09-13T05:58:00,axn,26.34
2023-09-13T05:59:00,axn,25.94
2023-09-13T06:00:00,axn,25.60
2023-09-13T06:01:00,axn,26.17
2023-09-13T06:02:00,axn,28.19
2023-09-13T06:03:00,axn,27.50
2023-09-13T06:04:00,axn,30.30
2023-09-13T06:05:00,axn,27.79
2023-09-13T06:06:00,axn,27.94
2023-09-13T06:07:00,axn,28.20
2023-09-13T06:08:00,axn,28.50
2023-09-13T06:09:00,axn,28.34
2023-09-13T06:10:00,axn,28.05
2023-09-13T06:11:00,axn,27.90
2023-09-13T06:12:00,axn,27.96
2023-09-13T06:13:00,axn,28.00
2023-09-13T06:14:00,axn,28.30
2023-09-13T06:15:00,axn,27.72
2023-09-13T06:16:00,axn,28.00
2023-09-13T06:17:00,axn,28.18
2023-09-13T06:18:00,axn,28.29
2023-09-13T06:19:00,axn,27.84
2023-09-13T06:20:00,axn,27.83
2023-09-13T06:21:00,axn,27.84
2023-09-13T06:22:00,axn,27.83
2023-09-13T06:23:00,axn,28.05
2023-09-13T06:24:00,axn,27.76
2023-09-13T06:25:00,axn,28.10
2023-09-13T06:26:00,axn,27.66
2023-09-13T06:27:00,axn,27.70
2023-09-13T06:28:00,axn,28.00
2023-09-13T06:29:00,axn,27.94
2023-09-13T06:30:00,axn,27.79
2023-09-13T06:31:00,axn,28.17
2023-09-13T06:32:00,axn,27.89
2023-09-13T06:33:00,axn,27.43
2023-09-13T06:34:00,axn,27.67
2023-09-13T06:35:00,axn,27.53
2023-09-13T06:36:00,axn,27.71
2023-09-13T06:37:00,axn,27.97
2023-09-13T06:38:00,axn,27.63
2023-09-13T06:39:00,axn,28.25
2023-09-13T06:40:00,axn,28.02
2023-09-13T06:41:00,axn,27.70
2023-09-13T06:42:00,axn,27.88
2023-09-13T06:43:00,axn,27.45
2023-09-13T06:44:00,axn,27.47
2023-09-13T06:45:00,axn,27.55
2023-09-13T06:46:00,axn,27.47
2023-09-13T06:47:00,axn,27.16
2023-09-13T06:48:00,axn,27.01
2023-09-13T06:49:00,axn,27.54
2023-09-13T06:50:00,axn,27.67
2023-09-13T06:51:00,axn,27.67
2023-09-13T06:52:00,axn,27.57
2023-09-13T06:53:00,axn,27.88
2023-09-13T06:54:00,axn,27.97
2023-09-13T06:55:00,axn,27.77
2023-09-13T06:56:00,axn,27.92
2023-09-13T06:57:00,axn,28.13
2023-09-13T06:58:00,axn,28.21
2023-09-13T06:59:00,axn,28.34
2023-09-13T07:00:00,axn,28.41
2023-09-13T07:01:00,axn,31.85
2023-09-13T07:02:00,axn,35.37
2023-09-13T07:03:00,axn,35.50
2023-09-13T07:04:00,axn,34.68
2023-09-13T07:05:00,axn,34.22
2023-09-13T07:06:00,axn,34.88
2023-09-13T07:07:00,axn,34.82
2023-09-13T07:08:00,axn,34.70
2023-09-13T07:09:00,axn,33.96
2023-09-13T07:10:00,axn,33.87
2023-09-13T07:11:00,axn,34.16
2023-09-13T07:12:00,axn,34.10
2023-09-13T07:13:00,axn,33.85
2023-09-13T07:14:00,axn,34.27
2023-09-13T07:15:00,axn,34.04
2023-09-13T07:16:00,axn,34.58
2023-09-13T07:17:00,axn,34.72
2023-09-13T07:18:00,axn,34.45
2023-09-13T07:19:00,axn,34.56
2023-09-13T07:20:00,axn,35.04
2023-09-13T07:21:00,axn,34.65
2023-09-13T07:22:00,axn,34.93
2023-09-13T07:23:00,axn,39.00
2023-09-13T07:24:00,axn,38.91
2023-09-13T07:25:00,axn,38.88
2023-09-13T07:26:00,axn,34.44
2023-09-13T07:27:00,axn,34.25
2023-09-13T07:28:00,axn,34.51
2023-09-13T07:29:00,axn,34.86
2023-09-13T07:30:00,axn,34.82
2023-09-13T07:31:00,axn,35.25
2023-09-13T07:32:00,axn,49.42
2023-09-13T07:33:00,axn,49.55
2023-09-13T07:34:00,axn,34.87
2023-09-13T07:35:00,axn,48.76
2023-09-13T07:36:00,axn,48.64
2023-09-13T07:37:00,axn,52.60
2023-09-13T07:38:00,axn,39.03
2023-09-13T07:39:00,axn,38.49
2023-09-13T07:40:00,axn,38.91
2023-09-13T07:41:00,axn,39.15
2023-09-13T07:42:00,axn,38.94
2023-09-13T07:43:00,axn,41.70
2023-09-13T07:44:00,axn,42.11
2023-09-13T07:45:00,axn,42.56
2023-09-13T07:46:00,axn,39.38
2023-09-13T07:47:00,axn,39.77
2023-09-13T07:48:00,axn,39.98
2023-09-13T07:49:00,axn,40.31
2023-09-13T07:50:00,axn,39.71
2023-09-13T07:51:00,axn,39.70
2023-09-13T07:52:00,axn,40.15
2023-09-13T07:53:00,axn,40.32
2023-09-13T07:54:00,axn,40.20
2023-09-13T07:55:00,axn,40.67
2023-09-13T07:56:00,axn,40.42
2023-09-13T07:57:00,axn,40.22
2023-09-13T07:58:00,axn,39.84
2023-09-13T07:59:00,axn,39.54
2023-09-13T08:00:00,axn,40.33
2023-09-13T08:01:00,axn,40.14
2023-09-13T08:02:00,axn,39.94
2023-09-13T08:03:00,axn,39.99
2023-09-13T08:04:00,axn,40.05
2023-09-13T08:05:00,axn,40.16
2023-09-13T08:06:00,axn,40.54
2023-09-13T08:07:00,axn,40.20
2023-09-13T08:08:00,axn,41.16
2023-09-13T08:09:00,axn,40.67
2023-09-13T08:10:00,axn,40.92
2023-09-13T08:11:00,axn,41.20
2023-09-13T08:12:00,axn,41.12
2023-09-13T08:13:00,axn,40.97
2023-09-13T08:14:00,axn,40.76
2023-09-13T08:15:00,axn,41.24
2023-09-13T08:16:00,axn,41.65
2023-09-13T08:17:00,axn,41.45
2023-09-13T08:18:00,axn,41.68
2023-09-13T08:19:00,axn,41.64
2023-09-13T08:20:00,axn,41.39
2023-09-13T08:21:00,axn,41.47
2023-09-13T08:22:00,axn,41.59
2023-09-13T08:23:00,axn,41.44
2023-09-13T08:24:00,axn,41.31
2023-09-13T08:25:00,axn,41.27
2023-09-13T08:26:00,axn,55.71
2023-09-13T08:27:00,axn,41.45
2023-09-13T08:28:00,axn,41.89
2023-09-13T08:29:00,axn,41.97
2023-09-13T08:30:00,axn,52.28
2023-09-13T08:31:00,axn,52.35
2023-09-13T08:32:00,axn,52.23
2023-09-13T08:33:00,axn,51.74
2023-09-13T08:34:00,axn,42.74
2023-09-13T08:35:00,axn,42.78
2023-09-13T08:36:00,axn,43.14
2023-09-13T08:37:00,axn,42.36
2023-09-13T08:38:00,axn,42.52
2023-09-13T08:39:00,axn,42.79
2023-09-13T08:40:00,axn,43.07
2023-09-13T08:41:00,axn,43.13
2023-09-13T08:42:00,axn,43.27
2023-09-13T08:43:00,axn,47.23
2023-09-13T08:44:00,axn,43.44
2023-09-13T08:45:00,axn,43.58
2023-09-13T08:46:00,axn,43.71
2023-09-13T08:47:00,axn,43.43
2023-09-13T08:48:00,axn,43.37
2023-09-13T08:49:00,axn,43.23
2023-09-13T08:50:00,axn,43.45
2023-09-13T08:51:00,axn,43.48
2023-09-13T08:52:00,axn,43.92
2023-09-13T08:53:00,axn,43.73
2023-09-13T08:54:00,axn,60.33
2023-09-13T08:55:00,axn,43.46
2023-09-13T08:56:00,axn,43.92
2023-09-13T08:57:00,axn,43.55
2023-09-13T08:58:00,axn,42.88
2023-09-13T08:59:00,axn,43.08
2023-09-13T09:00:00,axn,43.32
2023-09-13T09:01:00,axn,42.95
2023-09-13T09:02:00,axn,43.84
2023-09-13T09:03:00,axn,43.42
2023-09-13T09:04:00,axn,43.87
2023-09-13T09:05:00,axn,43.50
2023-09-13T09:06:00,axn,43.72
2023-09-13T09:07:00,axn,44.01
2023-09-13T09:08:00,axn,43.93
2023-09-13T09:09:00,axn,43.80
2023-09-13T09:10:00,axn,49.72
2023-09-13T09:11:00,axn,43.68
2023-09-13T09:12:00,axn,44.26
2023-09-13T09:13:00,axn,44.36
2023-09-13T09:14:00,axn,44.15
2023-09-13T09:15:00,axn,43.47
2023-09-13T09:16:00,axn,44.54
2023-09-13T09:17:00,axn,43.70
2023-09-13T09:18:00,axn,43.70
2023-09-13T09:19:00,axn,43.94
2023-09-13T09:20:00,axn,44.76
2023-09-13T09:21:00,axn,43.98
2023-09-13T09:22:00,axn,44.07
2023-09-13T09:23:00,axn,43.27
2023-09-13T09:24:00,axn,43.36
2023-09-13T09:25:00,axn,43.34
2023-09-13T09:26:00,axn,43.76
2023-09-13T09:27:00,axn,43.69
2023-09-13T09:28:00,axn,44.56
2023-09-13T09:29:00,axn,44.13
2023-09-13T09:30:00,axn,44.16
2023-09-13T09:31:00,axn,44.09
2023-09-13T09:32:00,axn,44.98
2023-09-13T09:33:00,axn,44.63
2023-09-13T09:34:00,axn,45.07
2023-09-13T09:35:00,axn,45.73
2023-09-13T09:36:00,axn,45.50
2023-09-13T09:37:00,axn,48.21
2023-09-13T09:38:00,axn,48.43
2023-09-13T09:39:00,axn,49.61
2023-09-13T09:40:00,axn,49.59
2023-09-13T09:41:00,axn,47.84
2023-09-13T09:42:00,axn,63.08
2023-09-13T09:43:00,axn,46.42
2023-09-13T09:44:00,axn,46.62
2023-09-13T09:45:00,axn,46.94
2023-09-13T09:46:00,axn,47.26
2023-09-13T09:47:00,axn,46.35
2023-09-13T09:48:00,axn,46.45
2023-09-13T09:49:00,axn,45.77
2023-09-13T09:50:00,axn,45.98
2023-09-13T09:51:00,axn,46.02
2023-09-13T09:52:00,axn,46.20
2023-09-13T09:53:00,axn,46.40
2023-09-13T09:54:00,axn,45.34
2023-09-13T09:55:00,axn,45.65
2023-09-13T09:56:00,axn,46.10
2023-09-13T09:57:00,axn,45.62
2023-09-13T09:58:00,axn,45.68
2023-09-13T09:59:00,axn,45.88
2023-09-13T10:00:00,axn,45.52
2023-09-13T10:01:00,axn,45.45
2023-09-13T10:02:00,axn,45.38
2023-09-13T10:03:00,axn,45.45
2023-09-13T10:04:00,axn,45.58
2023-09-13T10:05:00,axn,45.29
2023-09-13T10:06:00,axn,46.45
2023-09-13T10:07:00,axn,45.92
2023-09-13T10:08:00,axn,45.48
2023-09-13T10:09:00,axn,45.51
2023-09-13T10:10:00,axn,45.22
2023-09-13T10:11:00,axn,45.03
2023-09-13T10:12:00,axn,45.38
2023-09-13T10:13:00,axn,45.81
2023-09-13T10:14:00,axn,45.08
2023-09-13T10:15:00,axn,45.09
2023-09-13T10:16:00,axn,45.57
2023-09-13T10:17:00,axn,45.14
2023-09-13T10:18:00,axn,46.98
2023-09-13T10:19:00,axn,46.23
2023-09-13T10:20:00,axn,45.96
2023-09-13T10:21:00,axn,45.63
2023-09-13T10:22:00,axn,45.66
2023-09-13T10:23:00,axn,45.84
2023-09-13T10:24:00,axn,62.14
2023-09-13T10:25:00,axn,45.33
2023-09-13T10:26:00,axn,45.17
2023-09-13T10:27:00,axn,44.73
2023-09-13T10:28:00,axn,44.87
2023-09-13T10:29:00,axn,44.59
2023-09-13T10:30:00,axn,45.14
2023-09-13T10:31:00,axn,45.12
2023-09-13T10:32:00,axn,44.88
2023-09-13T10:33:00,axn,45.05
2023-09-13T10:34:00,axn,45.27
2023-09-13T10:35:00,axn,45.16
2023-09-13T10:36:00,axn,44.83
2023-09-13T10:37:00,axn,44.36
2023-09-13T10:38:00,axn,44.41
2023-09-13T10:39:00,axn,44.50
2023-09-13T10:40:00,axn,44.34
2023-09-13T10:41:00,axn,44.66
2023-09-13T10:42:00,axn,44.45
2023-09-13T10:43:00,axn,44.61
2023-09-13T10:44:00,axn,44.52
2023-09-13T10:45:00,axn,45.00
2023-09-13T10:46:00,axn,44.98
2023-09-13T10:47:00,axn,44.86
2023-09-13T10:48:00,axn,59.45
2023-09-13T10:49:00,axn,61.75
2023-09-13T10:50:00,axn,61.79
2023-09-13T10:51:00,axn,61.45
2023-09-13T10:52:00,axn,61.30
2023-09-13T10:53:00,axn,61.35
2023-09-13T10:54:00,axn,47.74
2023-09-13T10:55:00,axn,45.20
2023-09-13T10:56:00,axn,44.63
2023-09-13T10:57:00,axn,44.81
2023-09-13T10:58:00,axn,44.50
2023-09-13T10:59:00,axn,45.25
2023-09-13T11:00:00,axn,44.32
2023-09-13T11:01:00,axn,44.34
2023-09-13T11:02:00,axn,48.82
2023-09-13T11:03:00,axn,43.24
2023-09-13T11:04:00,axn,43.16
2023-09-13T11:05:00,axn,42.90
2023-09-13T11:06:00,axn,43.68
2023-09-13T11:07:00,axn,44.02
2023-09-13T11:08:00,axn,44.08
2023-09-13T11:09:00,axn,45.73
2023-09-13T11:10:00,axn,45.15
2023-09-13T11:11:00,axn,44.86
2023-09-13T11:12:00,axn,45.31
2023-09-13T11:13:00,axn,45.08
2023-09-13T11:14:00,axn,44.54
2023-09-13T11:15:00,axn,45.14
2023-09-13T11:16:00,axn,44.80
2023-09-13T11:17:00,axn,45.77
2023-09-13T11:18:00,axn,45.83
2023-09-13T11:19:00,axn,45.42
2023-09-13T11:20:00,axn,45.27
2023-09-13T11:21:00,axn,45.15
2023-09-13T11:22:00,axn,45.16
2023-09-13T11:23:00,axn,45.41
2023-09-13T11:24:00,axn,44.60
2023-09-13T11:25:00,axn,45.08
2023-09-13T11:26:00,axn,44.60
2023-09-13T11:27:00,axn,45.76
2023-09-13T11:28:00,axn,44.82
2023-09-13T11:29:00,axn,45.33
2023-09-13T11:30:00,axn,44.51
2023-09-13T11:31:00,axn,45.25
2023-09-13T11:32:00,axn,44.69
2023-09-13T11:33:00,axn,44.59
2023-09-13T11:34:00,axn,44.62
2023-09-13T11:35:00,axn,45.28
2023-09-13T11:36:00,axn,44.59
2023-09-13T11:37:00,axn,45.48
2023-09-13T11:38:00,axn,45.17
2023-09-13T11:39:00,axn,45.57
2023-09-13T11:40:00,axn,44.93
2023-09-13T11:41:00,axn,44.50
2023-09-13T11:42:00,axn,44.51
2023-09-13T11:43:00,axn,44.81
2023-09-13T11:44:00,axn,50.98
2023-09-13T11:45:00,axn,50.62
2023-09-13T11:46:00,axn,50.78
2023-09-13T11:47:00,axn,45.20
2023-09-13T11:48:00,axn,45.32
2023-09-13T11:49:00,axn,45.37
2023-09-13T11:50:00,axn,45.24
2023-09-13T11:51:00,axn,45.15
2023-09-13T11:52:00,axn,44.10
2023-09-13T11:53:00,axn,45.03
2023-09-13T11:54:00,axn,45.16
2023-09-13T11:55:00,axn,45.83
2023-09-13T11:56:00,axn,46.04
2023-09-13T11:57:00,axn,45.39
2023-09-13T11:58:00,axn,68.76
2023-09-13T11:59:00,axn,45.33
2023-09-13T12:00:00,axn,47.66
2023-09-13T12:01:00,axn,48.43
2023-09-13T12:02:00,axn,48.06
2023-09-13T12:03:00,axn,45.45
2023-09-13T12:04:00,axn,45.52
2023-09-13T12:05:00,axn,45.80
2023-09-13T12:06:00,axn,45.42
2023-09-13T12:07:00,axn,45.49
2023-09-13T12:08:00,axn,45.59
2023-09-13T12:09:00,axn,45.43
2023-09-13T12:10:00,axn,45.49
2023-09-13T12:11:00,axn,46.03
2023-09-13T12:12:00,axn,45.63
2023-09-13T12:13:00,axn,45.54
2023-09-13T12:14:00,axn,45.37
2023-09-13T12:15:00,axn,45.36
2023-09-13T12:16:00,axn,45.16
2023-09-13T12:17:00,axn,45.85
2023-09-13T12:18:00,axn,45.48
2023-09-13T12:19:00,axn,45.63
2023-09-13T12:20:00,axn,46.05
2023-09-13T12:21:00,axn,48.42
2023-09-13T12:22:00,axn,46.09
2023-09-13T12:23:00,axn,46.17
2023-09-13T12:24:00,axn,45.87
2023-09-13T12:25:00,axn,46.56
2023-09-13T12:26:00,axn,67.76
2023-09-13T12:27:00,axn,45.83
2023-09-13T12:28:00,axn,45.81
2023-09-13T12:29:00,axn,45.88
2023-09-13T12:30:00,axn,46.89
2023-09-13T12:31:00,axn,47.25
2023-09-13T12:32:00,axn,46.63
2023-09-13T12:33:00,axn,47.11
2023-09-13T12:34:00,axn,47.05
2023-09-13T12:35:00,axn,46.90
2023-09-13T12:36:00,axn,45.80
2023-09-13T12:37:00,axn,47.22
2023-09-13T12:38:00,axn,45.14
2023-09-13T12:39:00,axn,45.65
2023-09-13T12:40:00,axn,46.60
2023-09-13T12:41:00,axn,45.30
2023-09-13T12:42:00,axn,45.67
2023-09-13T12:43:00,axn,46.32
2023-09-13T12:44:00,axn,45.67
2023-09-13T12:45:00,axn,46.69
2023-09-13T12:46:00,axn,46.00
2023-09-13T12:47:00,axn,45.86
2023-09-13T12:48:00,axn,45.73
2023-09-13T12:49:00,axn,46.39
2023-09-13T12:50:00,axn,46.46
2023-09-13T12:51:00,axn,46.31
2023-09-13T12:52:00,axn,47.16
2023-09-13T12:53:00,axn,46.76
2023-09-13T12:54:00,axn,47.14
2023-09-13T12:55:00,axn,46.08
2023-09-13T12:56:00,axn,46.26
2023-09-13T12:57:00,axn,46.26
2023-09-13T12:58:00,axn,46.02
2023-09-13T12:59:00,axn,46.54
2023-09-13T13:00:00,axn,46.07
2023-09-13T13:01:00,axn,46.07
2023-09-13T13:02:00,axn,46.68
2023-09-13T13:03:00,axn,46.37
2023-09-13T13:04:00,axn,46.43
2023-09-13T13:05:00,axn,46.92
2023-09-13T13:06:00,axn,47.26
2023-09-13T13:07:00,axn,46.87
2023-09-13T13:08:00,axn,47.71
2023-09-13T13:09:00,axn,47.18
2023-09-13T13:10:00,axn,49.73
2023-09-13T13:11:00,axn,50.12
2023-09-13T13:12:00,axn,60.27
2023-09-13T13:13:00,axn,57.34
2023-09-13T13:14:00,axn,57.39
2023-09-13T13:15:00,axn,56.32
2023-09-13T13:16:00,axn,62.80
2023-09-13T13:17:00,axn,46.38
2023-09-13T13:18:00,axn,61.44